Location: Palomar Mountain Lodge
(33.3110°N, 116.8495°W)
Time: 15:52:47
(UTC-07:00)

deb Kosmos-1763 - Visible Passes

Search period start: 23 March 2019 00:00
Search period end: 02 April 2019 00:00
Orbit: 479 x 492 km, 74.0° (Epoch: 22 March)

Date Brightness Start Highest point End Pass type
(mag) Time Alt. Az. Time Alt. Az. Time Alt. Az.
23 Mar 6.4 05:48:53 10° SSE 05:51:58 26° E 05:55:03 10° NE visible
24 Mar 7.0 05:24:39 10° SE 05:27:10 18° E 05:29:43 10° NE visible
25 Mar 7.2 05:00:52 10° ESE 05:02:24 12° E 05:03:56 10° ENE visible
26 Mar 4.4 06:09:40 10° SW 06:13:08 42° WNW 06:16:38 10° N visible
27 Mar 4.0 05:44:37 10° SSW 05:48:14 65° WNW 05:51:51 10° N visible
28 Mar 4.0 05:20:44 18° SSW 05:23:19 81° ESE 05:26:59 10° NNE visible
29 Mar 4.8 04:57:12 34° SSE 04:58:26 51° ESE 05:01:59 10° NNE visible
30 Mar 5.5 04:33:29 33° ESE 04:33:33 33° ESE 04:36:52 10° NE visible
30 Mar 6.1 06:08:32 10° W 06:09:40 11° WNW 06:10:48 10° NW visible
31 Mar 6.6 04:09:38 20° ENE 04:09:38 20° ENE 04:11:35 10° NE visible
31 Mar 5.8 05:44:02 15° WNW 05:44:37 16° WNW 05:46:56 10° NNW visible
01 Apr 7.4 03:45:39 11° ENE 03:45:39 11° ENE 03:46:03 10° ENE visible
01 Apr 5.5 05:20:02 22° NW 05:20:02 22° NW 05:22:32 10° NNW visible
